BAW12FR LKPR-EGPH

Flight info

Callsign BAW12FR
Flight time 2h 13m
Altitude 40000
Route BALTU6H/12 BALTU DCT DONAD DCT VARIK L602 SODRO DCT KATCE DCT WRB DCT HMM L602 SUPUR P1 GODOS DCT AGPED
Aircraft A388/J-SADE2E3FGHIJ3J4J5M1RWXY/LB1D1

Departure

Time 2026-05-06 20:34
Airport Václav Havel Airport Prague (LKPR)

Arrival

Time 2026-05-06 22:48
Airport Edinburgh Airport (EGPH)
Time Latitude Longitude Altitude Speed Heading
2026-05-06 20:23 50.10762 14.26444 1181 ft 0 kts 303°
2026-05-06 20:23 50.10762 14.26443 1181 ft 0 kts 304°
2026-05-06 20:23 50.10765 14.26436 1177 ft 2 kts 304°
2026-05-06 20:23 50.10766 14.26434 1177 ft 0 kts 304°
2026-05-06 20:28 50.10772 14.26421 1177 ft 9 kts 305°
2026-05-06 20:28 50.10782 14.26397 1179 ft 5 kts 305°
2026-05-06 20:28 50.10799 14.26360 1175 ft 3 kts 303°
2026-05-06 20:28 50.10808 14.26336 1175 ft 10 kts 298°
2026-05-06 20:29 50.10821 14.26298 1176 ft 2 kts 297°
2026-05-06 20:29 50.10835 14.26258 1175 ft 7 kts 297°
2026-05-06 20:29 50.10862 14.26179 1177 ft 5 kts 298°
2026-05-06 20:29 50.10873 14.26114 1178 ft 7 kts 255°
2026-05-06 20:30 50.10843 14.26043 1179 ft 9 kts 214°
2026-05-06 20:30 50.10710 14.25902 1175 ft 14 kts 214°
2026-05-06 20:30 50.10637 14.25823 1175 ft 9 kts 220°
2026-05-06 20:31 50.10615 14.25742 1180 ft 9 kts 286°
2026-05-06 20:31 50.10640 14.25633 1179 ft 12 kts 294°
2026-05-06 20:31 50.10685 14.25502 1176 ft 15 kts 299°
2026-05-06 20:31 50.10741 14.25348 1176 ft 18 kts 300°
2026-05-06 20:32 50.10801 14.25171 1177 ft 19 kts 289°
2026-05-06 20:32 50.10818 14.24963 1177 ft 20 kts 272°
2026-05-06 20:32 50.10805 14.24746 1176 ft 20 kts 251°
2026-05-06 20:32 50.10786 14.24668 1175 ft 3 kts 234°
2026-05-06 20:33 50.10775 14.24657 1177 ft 3 kts 184°
2026-05-06 20:33 50.10733 14.24685 1176 ft 17 kts 138°
2026-05-06 20:33 50.10579 14.24999 1175 ft 72 kts 127°
2026-05-06 20:33 50.10124 14.25936 1176 ft 144 kts 127°
2026-05-06 20:34 50.09431 14.27371 1349 ft 177 kts 127°
2026-05-06 20:34 50.08717 14.28877 1920 ft 184 kts 124°
2026-05-06 20:34 50.07914 14.30544 2552 ft 201 kts 126°
2026-05-06 20:34 50.07023 14.32361 3185 ft 222 kts 126°
2026-05-06 20:35 50.06049 14.34363 3823 ft 243 kts 127°
2026-05-06 20:35 50.04979 14.36565 4450 ft 264 kts 127°
2026-05-06 20:35 50.03843 14.38901 5149 ft 273 kts 128°
2026-05-06 20:35 50.02700 14.41258 6052 ft 274 kts 129°
2026-05-06 20:36 50.01935 14.42832 6601 ft 276 kts 130°
2026-05-06 20:36 50.00798 14.45256 7392 ft 281 kts 122°
2026-05-06 20:36 50.00203 14.48182 8183 ft 290 kts 96°
2026-05-06 20:36 50.00478 14.51319 8972 ft 299 kts 70°
2026-05-06 20:37 50.01599 14.54082 9706 ft 308 kts 45°
2026-05-06 20:37 50.03300 14.56120 10426 ft 311 kts 32°
2026-05-06 20:37 50.05161 14.57873 11166 ft 314 kts 31°
2026-05-06 20:37 50.07023 14.59679 11866 ft 317 kts 33°
2026-05-06 20:38 50.08865 14.61615 12587 ft 320 kts 35°
2026-05-06 20:38 50.10700 14.63617 13252 ft 324 kts 31°
2026-05-06 20:38 50.12804 14.64843 13872 ft 325 kts
2026-05-06 20:38 50.15024 14.64718 14440 ft 324 kts 342°
2026-05-06 20:39 50.17112 14.63438 15014 ft 323 kts 329°
2026-05-06 20:39 50.19113 14.61749 15580 ft 325 kts 327°
2026-05-06 20:39 50.21094 14.60069 16000 ft 335 kts 328°
2026-05-06 20:39 50.23223 14.58372 16176 ft 352 kts 330°
2026-05-06 20:40 50.25481 14.56677 16413 ft 366 kts 331°
2026-05-06 20:40 50.27810 14.54990 16958 ft 369 kts 332°
2026-05-06 20:40 50.30055 14.53056 17518 ft 367 kts 318°
2026-05-06 20:40 50.31770 14.50160 18086 ft 361 kts 298°
2026-05-06 20:41 50.32797 14.46643 18576 ft 358 kts 287°
2026-05-06 20:41 50.33681 14.42970 19070 ft 361 kts 287°
2026-05-06 20:41 50.34584 14.39279 19589 ft 363 kts 287°
2026-05-06 20:41 50.35483 14.35621 20107 ft 366 kts 287°
2026-05-06 20:42 50.36361 14.32057 20603 ft 368 kts 287°
2026-05-06 20:42 50.37284 14.28301 21113 ft 371 kts 287°
2026-05-06 20:42 50.38214 14.24513 21626 ft 373 kts 287°
2026-05-06 20:42 50.39148 14.20693 22112 ft 377 kts 287°
2026-05-06 20:43 50.40088 14.16840 22606 ft 380 kts 287°
2026-05-06 20:43 50.41034 14.12952 23113 ft 383 kts 287°
2026-05-06 20:43 50.41985 14.09037 23575 ft 386 kts 287°
2026-05-06 20:43 50.42943 14.05083 24046 ft 388 kts 287°
2026-05-06 20:44 50.43904 14.01111 24491 ft 390 kts 287°
2026-05-06 20:44 50.44867 13.97122 24978 ft 392 kts 287°
2026-05-06 20:44 50.45835 13.93108 25387 ft 394 kts 286°
2026-05-06 20:44 50.46810 13.89060 25777 ft 397 kts 286°
2026-05-06 20:45 50.47786 13.84994 26201 ft 399 kts 286°
2026-05-06 20:45 50.48764 13.80914 26613 ft 401 kts 285°
2026-05-06 20:45 50.49750 13.76792 27054 ft 403 kts 285°
2026-05-06 20:45 50.50725 13.72707 27490 ft 405 kts 285°
2026-05-06 20:46 50.51717 13.68545 27907 ft 408 kts 285°
2026-05-06 20:46 50.52713 13.64357 28340 ft 410 kts 285°
2026-05-06 20:46 50.53715 13.60134 28777 ft 412 kts 284°
2026-05-06 20:46 50.54719 13.55891 29227 ft 415 kts 284°
2026-05-06 20:47 50.55727 13.51627 29671 ft 417 kts 284°
2026-05-06 20:47 50.56740 13.47337 30062 ft 420 kts 284°
2026-05-06 20:47 50.57757 13.43019 30494 ft 422 kts 284°
2026-05-06 20:47 50.58777 13.38680 30903 ft 424 kts 284°
2026-05-06 20:48 50.59800 13.34319 31315 ft 426 kts 284°
2026-05-06 20:48 50.60826 13.29933 31695 ft 428 kts 284°
2026-05-06 20:48 50.61859 13.25514 32088 ft 430 kts 284°
2026-05-06 20:48 50.62891 13.21085 32473 ft 433 kts 284°
2026-05-06 20:49 50.63930 13.16616 32839 ft 435 kts 284°
2026-05-06 20:49 50.64972 13.12129 33211 ft 437 kts 284°
2026-05-06 20:49 50.66016 13.07621 33585 ft 439 kts 284°
2026-05-06 20:49 50.67062 13.03099 33906 ft 441 kts 284°
2026-05-06 20:50 50.68112 12.98545 34142 ft 444 kts 284°
2026-05-06 20:50 50.69174 12.93934 34387 ft 448 kts 284°
2026-05-06 20:50 50.70221 12.89378 34720 ft 448 kts 284°
2026-05-06 20:50 50.71286 12.84735 35058 ft 449 kts 284°
2026-05-06 20:51 50.72349 12.80089 35387 ft 450 kts 284°
2026-05-06 20:51 50.73413 12.75429 35694 ft 451 kts 284°
2026-05-06 20:51 50.74473 12.70771 36016 ft 452 kts 284°
2026-05-06 20:51 50.75535 12.66096 36314 ft 453 kts 284°
2026-05-06 20:52 50.76598 12.61404 36621 ft 454 kts 285°
2026-05-06 20:52 50.77664 12.56691 36921 ft 455 kts 285°
2026-05-06 20:52 50.78728 12.51980 37215 ft 456 kts 285°
2026-05-06 20:52 50.79793 12.47246 37510 ft 457 kts 285°
2026-05-06 20:53 50.80858 12.42509 37817 ft 458 kts 285°
2026-05-06 20:53 50.81924 12.37751 38097 ft 459 kts 285°
2026-05-06 20:53 50.82986 12.33002 38386 ft 459 kts 285°
2026-05-06 20:53 50.84051 12.28229 38637 ft 460 kts 285°
2026-05-06 20:54 50.85114 12.23454 38897 ft 459 kts 285°
2026-05-06 20:54 50.86171 12.18699 39145 ft 459 kts 285°
2026-05-06 20:54 50.87216 12.13983 39370 ft 459 kts 285°
2026-05-06 20:54 50.88270 12.09217 39611 ft 459 kts 285°
2026-05-06 20:55 50.89324 12.04436 39788 ft 461 kts 285°
2026-05-06 20:55 50.91455 11.94728 39798 ft 473 kts 285°
2026-05-06 20:56 50.93640 11.84736 39801 ft 486 kts 285°
2026-05-06 20:56 50.95876 11.74463 39801 ft 499 kts 285°
2026-05-06 20:57 50.98164 11.63900 39799 ft 513 kts 285°
2026-05-06 20:57 51.00468 11.53209 39801 ft 526 kts 285°
2026-05-06 20:58 51.02835 11.42172 39948 ft 533 kts 285°
2026-05-06 20:58 51.04013 11.36682 40894 ft 517 kts 286°
2026-05-06 20:58 51.05167 11.31323 41613 ft 508 kts 286°
2026-05-06 20:58 51.06325 11.25958 42051 ft 505 kts 286°
2026-05-06 20:59 51.07449 11.20746 42344 ft 505 kts 286°
2026-05-06 20:59 51.08589 11.15462 42593 ft 505 kts 286°
2026-05-06 20:59 51.09725 11.10196 42856 ft 505 kts 286°
2026-05-06 20:59 51.10864 11.04913 43097 ft 505 kts 287°
2026-05-06 21:00 51.12004 10.99626 43326 ft 505 kts 287°
2026-05-06 21:00 51.13144 10.94336 43560 ft 505 kts 287°
2026-05-06 21:00 51.14282 10.89058 43777 ft 505 kts 287°
2026-05-06 21:00 51.15421 10.83768 43997 ft 505 kts 287°
2026-05-06 21:01 51.16562 10.78474 44212 ft 505 kts 287°
2026-05-06 21:01 51.17664 10.73356 44405 ft 505 kts 287°
2026-05-06 21:01 51.18762 10.68257 44618 ft 505 kts 287°
2026-05-06 21:01 51.19915 10.62895 44804 ft 505 kts 287°
2026-05-06 21:02 51.21054 10.57596 45004 ft 505 kts 287°
2026-05-06 21:02 51.22191 10.52298 45177 ft 504 kts 287°
2026-05-06 21:02 51.23325 10.47008 45363 ft 504 kts 287°
2026-05-06 21:02 51.24457 10.41719 45545 ft 503 kts 287°
2026-05-06 21:03 51.25586 10.36438 45735 ft 503 kts 287°
2026-05-06 21:03 51.26714 10.31155 45890 ft 503 kts 287°
2026-05-06 21:03 51.27827 10.25939 46054 ft 502 kts 287°
2026-05-06 21:03 51.28951 10.20662 46222 ft 502 kts 287°
2026-05-06 21:04 51.30073 10.15390 46368 ft 501 kts 287°
2026-05-06 21:04 51.31196 10.10107 46531 ft 500 kts 287°
2026-05-06 21:04 51.32297 10.04918 46685 ft 500 kts 287°
2026-05-06 21:04 51.33427 9.99590 46829 ft 499 kts 287°
2026-05-06 21:05 51.34526 9.94399 46980 ft 498 kts 287°
2026-05-06 21:05 51.35651 9.89080 47113 ft 498 kts 287°
2026-05-06 21:05 51.36745 9.83904 47269 ft 497 kts 287°
2026-05-06 21:05 51.37848 9.78675 47389 ft 496 kts 287°
2026-05-06 21:06 51.38951 9.73444 47508 ft 495 kts 287°
2026-05-06 21:06 51.40051 9.68220 47642 ft 494 kts 287°
2026-05-06 21:06 51.41148 9.63004 47767 ft 494 kts 287°
2026-05-06 21:06 51.42244 9.57786 47872 ft 493 kts 287°
2026-05-06 21:07 51.43332 9.52602 47990 ft 492 kts 287°
2026-05-06 21:07 51.45507 9.42220 48191 ft 490 kts 287°
2026-05-06 21:08 51.47669 9.31872 48374 ft 488 kts 287°
2026-05-06 21:08 51.49815 9.21579 48531 ft 486 kts 287°
2026-05-06 21:09 51.51942 9.11353 48665 ft 483 kts 286°
2026-05-06 21:09 51.54051 9.01191 48822 ft 481 kts 286°
2026-05-06 21:10 51.56158 8.91012 48925 ft 479 kts 286°
2026-05-06 21:10 51.58246 8.80902 49025 ft 477 kts 286°
2026-05-06 21:11 51.60329 8.70792 49099 ft 474 kts 286°
2026-05-06 21:11 51.62393 8.60752 49150 ft 472 kts 286°
2026-05-06 21:12 51.64447 8.50738 49195 ft 469 kts 286°
2026-05-06 21:12 51.66488 8.40763 49221 ft 467 kts 286°
2026-05-06 21:13 51.68510 8.30860 49214 ft 464 kts 286°
2026-05-06 21:13 51.70522 8.20984 49207 ft 462 kts 286°
2026-05-06 21:14 51.72517 8.11172 49172 ft 459 kts 286°
2026-05-06 21:14 51.74498 8.01403 49139 ft 457 kts 286°
2026-05-06 21:15 51.76466 7.91679 49082 ft 455 kts 286°
2026-05-06 21:15 51.78407 7.82065 49024 ft 452 kts 286°
2026-05-06 21:16 51.80348 7.72425 48946 ft 450 kts 286°
2026-05-06 21:16 51.82277 7.62823 48866 ft 448 kts 286°
2026-05-06 21:17 51.84196 7.53248 48762 ft 446 kts 286°
2026-05-06 21:17 51.86101 7.43713 48673 ft 444 kts 286°
2026-05-06 21:18 51.87985 7.34263 48576 ft 443 kts 286°
2026-05-06 21:18 51.89869 7.24789 48468 ft 441 kts 286°
2026-05-06 21:19 51.91743 7.15340 48370 ft 440 kts 286°
2026-05-06 21:19 51.93612 7.05886 48257 ft 439 kts 286°
2026-05-06 21:20 51.95468 6.96473 48159 ft 438 kts 286°
2026-05-06 21:20 51.97320 6.87056 48050 ft 437 kts 286°
2026-05-06 21:21 51.99162 6.77661 47955 ft 437 kts 286°
2026-05-06 21:21 52.00986 6.68333 47864 ft 436 kts 286°
2026-05-06 21:22 52.02522 6.60460 47775 ft 436 kts 286°
2026-05-06 21:22 52.04335 6.51138 47679 ft 435 kts 285°
2026-05-06 21:23 52.06451 6.40225 47593 ft 435 kts 285°
2026-05-06 21:23 52.07967 6.32382 47518 ft 434 kts 285°
2026-05-06 21:24 52.09773 6.23012 47445 ft 434 kts 285°
2026-05-06 21:24 52.11576 6.13630 47377 ft 434 kts 285°
2026-05-06 21:25 52.13373 6.04253 47307 ft 434 kts 285°
2026-05-06 21:25 52.15166 5.94870 47253 ft 434 kts 285°
2026-05-06 21:26 52.16944 5.85536 47184 ft 434 kts 285°
2026-05-06 21:26 52.18727 5.76143 47127 ft 434 kts 285°
2026-05-06 21:27 52.20507 5.66739 47067 ft 434 kts 285°
2026-05-06 21:27 52.22285 5.57321 47019 ft 434 kts 285°
2026-05-06 21:28 52.24057 5.47900 46975 ft 434 kts 285°
2026-05-06 21:28 52.25827 5.38466 46930 ft 434 kts 285°
2026-05-06 21:29 52.27580 5.29089 46905 ft 434 kts 285°
2026-05-06 21:29 52.29339 5.19653 46878 ft 434 kts 285°
2026-05-06 21:30 52.31094 5.10207 46845 ft 435 kts 285°
2026-05-06 21:30 52.32847 5.00740 46832 ft 435 kts 285°
2026-05-06 21:31 52.34596 4.91271 46808 ft 435 kts 285°
2026-05-06 21:31 52.36337 4.81807 46787 ft 435 kts 285°
2026-05-06 21:32 52.38077 4.72327 46775 ft 435 kts 285°
2026-05-06 21:32 52.40679 4.58086 46767 ft 435 kts 285°
2026-05-06 21:33 52.42409 4.48584 46762 ft 435 kts 285°
2026-05-06 21:33 52.44121 4.39152 46759 ft 435 kts 285°
2026-05-06 21:34 52.45841 4.29643 46767 ft 435 kts 285°
2026-05-06 21:34 52.47561 4.20102 46765 ft 435 kts 285°
2026-05-06 21:35 52.49273 4.10578 46761 ft 435 kts 285°
2026-05-06 21:35 52.50980 4.01052 46768 ft 435 kts 284°
2026-05-06 21:36 52.52684 3.91512 46764 ft 435 kts 284°
2026-05-06 21:36 52.54374 3.82024 46769 ft 435 kts 284°
2026-05-06 21:37 52.56070 3.72475 46770 ft 435 kts 284°
2026-05-06 21:37 52.57760 3.62923 46771 ft 435 kts 284°
2026-05-06 21:38 52.59448 3.53350 46773 ft 435 kts 284°
2026-05-06 21:38 52.61128 3.43790 46760 ft 435 kts 284°
2026-05-06 21:39 52.62786 3.34321 46764 ft 435 kts 284°
2026-05-06 21:39 52.64458 3.24740 46766 ft 435 kts 284°
2026-05-06 21:40 52.66126 3.15153 46767 ft 435 kts 284°
2026-05-06 21:40 52.67776 3.05624 46758 ft 436 kts 284°
2026-05-06 21:41 52.69439 2.95999 46771 ft 436 kts 284°
2026-05-06 21:41 52.71092 2.86392 46765 ft 436 kts 284°
2026-05-06 21:42 52.72751 2.76772 46721 ft 437 kts 284°
2026-05-06 21:42 52.74449 2.67242 46782 ft 435 kts 284°
2026-05-06 21:43 52.76158 2.57640 46777 ft 435 kts 285°
2026-05-06 21:43 52.78295 2.48661 46777 ft 437 kts 303°
2026-05-06 21:44 52.82221 2.41277 46678 ft 440 kts 312°
2026-05-06 21:44 52.84108 2.38062 44842 ft 473 kts 312°
2026-05-06 21:44 52.86504 2.34014 42388 ft 512 kts 313°
2026-05-06 21:45 52.89016 2.29782 41683 ft 513 kts 313°
2026-05-06 21:45 52.91452 2.25562 41575 ft 500 kts 311°
2026-05-06 21:45 52.96201 2.17122 41450 ft 496 kts 311°
2026-05-06 21:46 52.98548 2.12965 41046 ft 492 kts 311°
2026-05-06 21:46 53.00886 2.08838 40619 ft 488 kts 311°
2026-05-06 21:46 53.03200 2.04756 40200 ft 483 kts 311°
2026-05-06 21:46 53.05480 2.00730 40061 ft 474 kts 311°
2026-05-06 21:47 53.10004 1.92723 40042 ft 481 kts 311°
2026-05-06 21:47 53.14593 1.84576 40044 ft 481 kts 311°
2026-05-06 21:48 53.19163 1.76437 40044 ft 481 kts 311°
2026-05-06 21:48 53.23734 1.68267 40050 ft 491 kts 311°
2026-05-06 21:49 53.28448 1.59811 40054 ft 502 kts 311°
2026-05-06 21:49 53.33045 1.51543 40052 ft 497 kts 311°
2026-05-06 21:50 53.37765 1.43020 40055 ft 498 kts 311°
2026-05-06 21:50 53.42462 1.34509 40055 ft 498 kts 311°
2026-05-06 21:51 53.47156 1.25973 40056 ft 497 kts 311°
2026-05-06 21:51 53.51844 1.17420 40055 ft 498 kts 311°
2026-05-06 21:52 53.56526 1.08845 40058 ft 497 kts 311°
2026-05-06 21:52 53.58860 1.04560 39931 ft 494 kts 311°
2026-05-06 21:52 53.61142 1.00364 39556 ft 490 kts 311°
2026-05-06 21:53 53.63439 0.96132 39132 ft 486 kts 311°
2026-05-06 21:53 53.65698 0.91965 38965 ft 475 kts 311°
2026-05-06 21:53 53.67761 0.88152 38877 ft 464 kts 311°
2026-05-06 21:53 53.69953 0.84093 38792 ft 452 kts 311°
2026-05-06 21:54 53.72020 0.80259 38506 ft 445 kts 311°
2026-05-06 21:54 53.74104 0.76387 38093 ft 441 kts 311°
2026-05-06 21:54 53.76153 0.72572 37689 ft 437 kts 311°
2026-05-06 21:54 53.78184 0.68786 37303 ft 432 kts 311°
2026-05-06 21:55 53.80191 0.65040 36927 ft 428 kts 311°
2026-05-06 21:55 53.82183 0.61315 36556 ft 424 kts 311°
2026-05-06 21:55 53.84155 0.57623 36194 ft 420 kts 311°
2026-05-06 21:55 53.86102 0.53972 35830 ft 416 kts 312°
2026-05-06 21:56 53.88029 0.50353 35474 ft 412 kts 312°
2026-05-06 21:56 53.89940 0.46759 35129 ft 408 kts 312°
2026-05-06 21:56 53.91832 0.43196 34791 ft 404 kts 312°
2026-05-06 21:56 53.93704 0.39665 34452 ft 401 kts 312°
2026-05-06 21:57 53.95559 0.36160 34102 ft 397 kts 313°
2026-05-06 21:57 53.97393 0.32691 33707 ft 394 kts 313°
2026-05-06 21:57 53.99196 0.29277 33291 ft 391 kts 313°
2026-05-06 21:57 54.01002 0.25852 32883 ft 388 kts 313°
2026-05-06 21:58 54.02794 0.22448 32483 ft 384 kts 313°
2026-05-06 21:58 54.04571 0.19068 32063 ft 382 kts 313°
2026-05-06 21:58 54.06335 0.15709 31671 ft 379 kts 313°
2026-05-06 21:58 54.08089 0.12364 31278 ft 377 kts 313°
2026-05-06 21:59 54.09824 0.09051 30891 ft 374 kts 312°
2026-05-06 21:59 54.11548 0.05753 30518 ft 371 kts 312°
2026-05-06 21:59 54.13262 0.02470 30123 ft 369 kts 312°
2026-05-06 21:59 54.14672 -0.00233 29774 ft 367 kts 312°
2026-05-06 22:00 54.16369 -0.03492 29332 ft 364 kts 312°
2026-05-06 22:00 54.18047 -0.06716 28907 ft 362 kts 312°
2026-05-06 22:00 54.19714 -0.09926 28472 ft 360 kts 312°
2026-05-06 22:00 54.21369 -0.13115 28055 ft 358 kts 311°
2026-05-06 22:01 54.23015 -0.16292 27642 ft 355 kts 311°
2026-05-06 22:01 54.24651 -0.19453 27242 ft 353 kts 311°
2026-05-06 22:01 54.26273 -0.22592 26826 ft 351 kts 311°
2026-05-06 22:01 54.27882 -0.25708 26453 ft 349 kts 311°
2026-05-06 22:02 54.29486 -0.28819 26073 ft 347 kts 311°
2026-05-06 22:02 54.31034 -0.31828 25704 ft 345 kts 311°
2026-05-06 22:02 54.32617 -0.34906 25322 ft 344 kts 311°
2026-05-06 22:02 54.34038 -0.37673 24986 ft 342 kts 310°
2026-05-06 22:03 54.35609 -0.40735 24624 ft 340 kts 310°
2026-05-06 22:03 54.37168 -0.43778 24273 ft 339 kts 310°
2026-05-06 22:03 54.38718 -0.46807 23907 ft 337 kts 310°
2026-05-06 22:03 54.40263 -0.49829 23532 ft 336 kts 310°
2026-05-06 22:04 54.41795 -0.52832 23143 ft 333 kts 310°
2026-05-06 22:04 54.43317 -0.55818 22758 ft 331 kts 310°
2026-05-06 22:04 54.44829 -0.58787 22374 ft 329 kts 309°
2026-05-06 22:04 54.46332 -0.61743 21998 ft 327 kts 309°
2026-05-06 22:05 54.47789 -0.64612 21631 ft 325 kts 309°
2026-05-06 22:05 54.49273 -0.67537 21260 ft 323 kts 309°
2026-05-06 22:05 54.50748 -0.70447 20954 ft 321 kts 309°
2026-05-06 22:05 54.52213 -0.73341 20690 ft 321 kts 309°
2026-05-06 22:06 54.53676 -0.76235 20429 ft 320 kts 309°
2026-05-06 22:06 54.55129 -0.79114 20178 ft 319 kts 309°
2026-05-06 22:06 54.56532 -0.81895 19933 ft 317 kts 309°
2026-05-06 22:06 54.57955 -0.84721 19679 ft 316 kts 309°
2026-05-06 22:07 54.59388 -0.87569 19446 ft 315 kts 309°
2026-05-06 22:07 54.60819 -0.90415 19199 ft 314 kts 309°
2026-05-06 22:07 54.62246 -0.93260 18961 ft 313 kts 309°
2026-05-06 22:07 54.63671 -0.96101 18720 ft 312 kts 309°
2026-05-06 22:08 54.65089 -0.98932 18489 ft 311 kts 308°
2026-05-06 22:08 54.66498 -1.01749 18229 ft 310 kts 308°
2026-05-06 22:08 54.67903 -1.04563 17956 ft 309 kts 308°
2026-05-06 22:09 54.69330 -1.07422 17677 ft 308 kts 308°
2026-05-06 22:09 54.70729 -1.10228 17407 ft 307 kts 308°
2026-05-06 22:09 54.72121 -1.13024 17142 ft 306 kts 308°
2026-05-06 22:09 54.73508 -1.15813 16875 ft 305 kts 308°
2026-05-06 22:10 54.74892 -1.18599 16619 ft 304 kts 308°
2026-05-06 22:10 54.76217 -1.21267 16357 ft 303 kts 308°
2026-05-06 22:10 54.77590 -1.24039 16087 ft 303 kts 308°
2026-05-06 22:10 54.78959 -1.26805 15859 ft 302 kts 308°
2026-05-06 22:11 54.79863 -1.28632 15663 ft 301 kts 308°
2026-05-06 22:11 54.81227 -1.31393 15421 ft 301 kts 309°
2026-05-06 22:11 54.82586 -1.34145 15183 ft 300 kts 308°
2026-05-06 22:11 54.83939 -1.36889 14926 ft 299 kts 309°
2026-05-06 22:12 54.85292 -1.39636 14672 ft 298 kts 308°
2026-05-06 22:12 54.86639 -1.42373 14438 ft 297 kts 308°
2026-05-06 22:12 54.87979 -1.45102 14194 ft 297 kts 308°
2026-05-06 22:12 54.89321 -1.47834 13957 ft 297 kts 308°
2026-05-06 22:13 54.90658 -1.50561 13693 ft 295 kts 308°
2026-05-06 22:13 54.91987 -1.53274 13427 ft 295 kts 308°
2026-05-06 22:13 54.93312 -1.55985 13154 ft 293 kts 308°
2026-05-06 22:13 54.94632 -1.58686 12877 ft 293 kts 308°
2026-05-06 22:14 54.95793 -1.61064 12670 ft 291 kts 308°
2026-05-06 22:14 54.97119 -1.63782 12396 ft 290 kts 308°
2026-05-06 22:14 54.98408 -1.66429 12128 ft 290 kts 308°
2026-05-06 22:14 54.99707 -1.69100 11878 ft 289 kts 308°
2026-05-06 22:15 55.01007 -1.71774 11617 ft 288 kts 308°
2026-05-06 22:15 55.02301 -1.74438 11359 ft 287 kts 309°
2026-05-06 22:15 55.03590 -1.77095 11093 ft 286 kts 309°
2026-05-06 22:15 55.04873 -1.79742 10859 ft 285 kts 309°
2026-05-06 22:16 55.06155 -1.82387 10618 ft 284 kts 309°
2026-05-06 22:16 55.07429 -1.85019 10367 ft 283 kts 309°
2026-05-06 22:16 55.08702 -1.87650 10123 ft 283 kts 309°
2026-05-06 22:16 55.09967 -1.90269 9940 ft 281 kts 309°
2026-05-06 22:17 55.11230 -1.92888 9798 ft 282 kts 309°
2026-05-06 22:17 55.12418 -1.95595 9658 ft 280 kts 302°
2026-05-06 22:17 55.13385 -1.98546 9516 ft 279 kts 298°
2026-05-06 22:17 55.14328 -2.01464 9392 ft 279 kts 299°
2026-05-06 22:18 55.15302 -2.04394 9251 ft 278 kts 300°
2026-05-06 22:18 55.16275 -2.07314 9113 ft 277 kts 300°
2026-05-06 22:18 55.17242 -2.10229 8977 ft 277 kts 299°
2026-05-06 22:18 55.18193 -2.13109 8821 ft 276 kts 299°
2026-05-06 22:19 55.19155 -2.16035 8699 ft 275 kts 299°
2026-05-06 22:19 55.20106 -2.18935 8560 ft 274 kts 299°
2026-05-06 22:19 55.21053 -2.21827 8421 ft 274 kts 299°
2026-05-06 22:19 55.21999 -2.24718 8308 ft 273 kts 299°
2026-05-06 22:20 55.22940 -2.27598 8163 ft 272 kts 299°
2026-05-06 22:20 55.23876 -2.30466 8033 ft 271 kts 300°
2026-05-06 22:20 55.24813 -2.33340 7901 ft 271 kts 300°
2026-05-06 22:20 55.25731 -2.36161 7767 ft 270 kts 300°
2026-05-06 22:21 55.26658 -2.39012 7644 ft 269 kts 300°
2026-05-06 22:21 55.27581 -2.41851 7521 ft 267 kts 300°
2026-05-06 22:21 55.28499 -2.44682 7385 ft 267 kts 300°
2026-05-06 22:21 55.29417 -2.47512 7260 ft 267 kts 300°
2026-05-06 22:22 55.30331 -2.50339 7131 ft 266 kts 300°
2026-05-06 22:22 55.31240 -2.53150 7043 ft 265 kts 300°
2026-05-06 22:22 55.32148 -2.55962 7036 ft 265 kts 300°
2026-05-06 22:22 55.33060 -2.58789 7039 ft 267 kts 300°
2026-05-06 22:23 55.33976 -2.61634 7039 ft 268 kts 300°
2026-05-06 22:23 55.34892 -2.64479 7041 ft 268 kts 300°
2026-05-06 22:23 55.35809 -2.67334 7037 ft 268 kts 300°
2026-05-06 22:23 55.36724 -2.70181 7040 ft 267 kts 300°
2026-05-06 22:24 55.37636 -2.73025 7041 ft 267 kts 299°
2026-05-06 22:24 55.38549 -2.75874 7039 ft 267 kts 299°
2026-05-06 22:24 55.39460 -2.78724 7036 ft 266 kts 299°
2026-05-06 22:24 55.40355 -2.81526 7038 ft 266 kts 299°
2026-05-06 22:25 55.41261 -2.84363 7037 ft 266 kts 299°
2026-05-06 22:25 55.42168 -2.87206 7039 ft 267 kts 299°
2026-05-06 22:25 55.43073 -2.90051 7035 ft 267 kts 299°
2026-05-06 22:25 55.43981 -2.92906 7038 ft 268 kts 299°
2026-05-06 22:26 55.44893 -2.95776 7038 ft 267 kts 299°
2026-05-06 22:26 55.45896 -2.98509 7033 ft 267 kts 313°
2026-05-06 22:26 55.47408 -3.00377 7037 ft 269 kts 338°
2026-05-06 22:26 55.49191 -3.01347 7036 ft 269 kts 343°
2026-05-06 22:27 55.50985 -3.02303 7036 ft 269 kts 342°
2026-05-06 22:27 55.52750 -3.03277 7039 ft 269 kts 342°
2026-05-06 22:27 55.54533 -3.04272 7038 ft 268 kts 341°
2026-05-06 22:27 55.56301 -3.05258 7041 ft 267 kts 341°
2026-05-06 22:28 55.58080 -3.06248 7037 ft 267 kts 342°
2026-05-06 22:28 55.59858 -3.07237 7034 ft 267 kts 342°
2026-05-06 22:28 55.61631 -3.08223 7036 ft 268 kts 342°
2026-05-06 22:28 55.63409 -3.09213 7035 ft 267 kts 342°
2026-05-06 22:29 55.65183 -3.10203 7030 ft 267 kts 342°
2026-05-06 22:29 55.66952 -3.11189 7031 ft 266 kts 342°
2026-05-06 22:29 55.68722 -3.12176 7026 ft 267 kts 342°
2026-05-06 22:29 55.70461 -3.13220 7003 ft 267 kts 334°
2026-05-06 22:30 55.71914 -3.15257 6896 ft 269 kts 307°
2026-05-06 22:30 55.72716 -3.18243 6759 ft 269 kts 287°
2026-05-06 22:30 55.73149 -3.21334 6609 ft 268 kts 283°
2026-05-06 22:30 55.73544 -3.24508 6438 ft 269 kts 283°
2026-05-06 22:31 55.73974 -3.27724 6249 ft 267 kts 284°
2026-05-06 22:31 55.74435 -3.30890 6073 ft 265 kts 285°
2026-05-06 22:31 55.74920 -3.34060 5893 ft 265 kts 286°
2026-05-06 22:31 55.75415 -3.37226 5713 ft 266 kts 286°
2026-05-06 22:32 55.75910 -3.40371 5522 ft 264 kts 285°
2026-05-06 22:32 55.76396 -3.43471 5352 ft 264 kts 285°
2026-05-06 22:32 55.76891 -3.46627 5166 ft 265 kts 285°
2026-05-06 22:32 55.77482 -3.49721 4967 ft 266 kts 300°
2026-05-06 22:33 55.78710 -3.52120 4729 ft 263 kts 327°
2026-05-06 22:33 55.80420 -3.53252 4278 ft 265 kts 355°
2026-05-06 22:33 55.82244 -3.53025 3909 ft 263 kts 12°
2026-05-06 22:33 55.84032 -3.52350 3554 ft 262 kts 14°
2026-05-06 22:34 55.85795 -3.51604 3229 ft 260 kts 15°
2026-05-06 22:34 55.87525 -3.50859 2870 ft 258 kts 15°
2026-05-06 22:34 55.89038 -3.49987 2567 ft 249 kts 26°
2026-05-06 22:34 55.90462 -3.48457 2409 ft 231 kts 41°
2026-05-06 22:35 55.91581 -3.46557 2265 ft 214 kts 51°
2026-05-06 22:35 55.92494 -3.44564 1964 ft 206 kts 54°
2026-05-06 22:35 55.93269 -3.42554 1387 ft 195 kts 63°
2026-05-06 22:35 55.93920 -3.40509 477 ft 191 kts 64°
2026-05-06 22:36 55.94569 -3.38572 623 ft 175 kts 59°
2026-05-06 22:36 55.95232 -3.36775 1202 ft 171 kts 59°
2026-05-06 22:36 55.95890 -3.34955 1747 ft 186 kts 60°
2026-05-06 22:36 55.96586 -3.32855 2272 ft 213 kts 63°
2026-05-06 22:37 55.97309 -3.30513 2741 ft 213 kts 63°
2026-05-06 22:37 55.98028 -3.28218 3215 ft 211 kts 62°
2026-05-06 22:37 55.98720 -3.25913 3406 ft 214 kts 72°
2026-05-06 22:37 55.98813 -3.23292 3368 ft 213 kts 105°
2026-05-06 22:38 55.98071 -3.21049 3310 ft 213 kts 137°
2026-05-06 22:38 55.96776 -3.19870 3242 ft 211 kts 168°
2026-05-06 22:38 55.95311 -3.20094 3197 ft 218 kts 200°
2026-05-06 22:38 55.94111 -3.21742 3134 ft 223 kts 234°
2026-05-06 22:39 55.93464 -3.24271 3086 ft 224 kts 248°
2026-05-06 22:39 55.92905 -3.26864 3025 ft 224 kts 247°
2026-05-06 22:39 55.92335 -3.29441 2999 ft 223 kts 247°
2026-05-06 22:39 55.91762 -3.31990 2932 ft 223 kts 247°
2026-05-06 22:40 55.91176 -3.34581 2869 ft 223 kts 246°
2026-05-06 22:40 55.90604 -3.37098 2824 ft 223 kts 246°
2026-05-06 22:40 55.90021 -3.39658 2758 ft 223 kts 246°
2026-05-06 22:40 55.89440 -3.42206 2715 ft 221 kts 246°
2026-05-06 22:41 55.88325 -3.47102 2537 ft 207 kts 246°
2026-05-06 22:41 55.87783 -3.49476 2484 ft 207 kts 246°
2026-05-06 22:41 55.87255 -3.51790 2418 ft 196 kts 246°
2026-05-06 22:42 55.86759 -3.53963 2277 ft 183 kts 245°
2026-05-06 22:42 55.86293 -3.56006 2096 ft 172 kts 245°
2026-05-06 22:42 55.85832 -3.58002 2056 ft 177 kts 245°
2026-05-06 22:42 55.85490 -3.60113 2002 ft 182 kts 268°
2026-05-06 22:43 55.85743 -3.61790 1969 ft 183 kts 302°
2026-05-06 22:43 55.86337 -3.62859 1915 ft 181 kts 333°
2026-05-06 22:43 55.87526 -3.63041 1840 ft 173 kts 26°
2026-05-06 22:44 55.88149 -3.62136 1753 ft 166 kts 62°
2026-05-06 22:44 55.88479 -3.60243 1705 ft 163 kts 80°
2026-05-06 22:44 55.88720 -3.58261 1647 ft 164 kts 79°
2026-05-06 22:44 55.88984 -3.56281 1649 ft 164 kts 78°
2026-05-06 22:45 55.89329 -3.54347 1653 ft 165 kts 69°
2026-05-06 22:45 55.89849 -3.52525 1648 ft 165 kts 62°
2026-05-06 22:45 55.90448 -3.50761 1652 ft 166 kts 61°
2026-05-06 22:45 55.91041 -3.48999 1517 ft 165 kts 61°
2026-05-06 22:46 55.91623 -3.47271 1277 ft 161 kts 62°
2026-05-06 22:46 55.92202 -3.45552 1048 ft 162 kts 61°
2026-05-06 22:46 55.92785 -3.43819 824 ft 166 kts 61°
2026-05-06 22:46 55.93385 -3.42037 624 ft 169 kts 62°
2026-05-06 22:47 55.93995 -3.40201 391 ft 177 kts 62°
2026-05-06 22:47 55.94620 -3.38374 145 ft 161 kts 62°
2026-05-06 22:47 55.95120 -3.36881 115 ft 116 kts 59°
2026-05-06 22:47 55.95473 -3.35861 111 ft 64 kts 60°
2026-05-06 22:48 55.95559 -3.35551 114 ft 0 kts 109°
2026-05-06 22:48 55.95550 -3.35517 116 ft 6 kts 130°
2026-05-06 22:48 55.95489 -3.35430 114 ft 14 kts 153°
2026-05-06 22:48 55.95432 -3.35453 114 ft 7 kts 214°
2026-05-06 22:49 55.95391 -3.35527 114 ft 10 kts 240°
2026-05-06 22:49 55.95349 -3.35657 113 ft 14 kts 240°
2026-05-06 22:49 55.95300 -3.35804 114 ft 13 kts 238°
2026-05-06 22:49 55.95246 -3.35951 114 ft 14 kts 222°
2026-05-06 22:50 55.95168 -3.35942 114 ft 12 kts 149°
2026-05-06 22:50 55.95109 -3.35829 113 ft 12 kts 134°
2026-05-06 22:50 55.95063 -3.35813 114 ft 2 kts 237°
2026-05-06 22:50 55.95060 -3.35842 114 ft 5 kts 270°
2026-05-06 22:51 55.95055 -3.35931 114 ft 9 kts 250°
2026-05-06 22:51 55.95038 -3.36003 114 ft 0 kts 247°
2026-05-06 22:51 55.95032 -3.36029 114 ft 0 kts 247°